[[[{"header":{"parameterUnit":"kt","parameterCategory":2,"dx":1,"dy":1,"la1":30.253999710083008,"la2":30.299108505249023,"lo1":-89.0895004272461,"lo2":-89.04439544677734,"nx":28,"ny":28,"refTime":"2022-09-17T21:00:00:Z","depth":"0","parameterNumber":2,"parameterNumberName":"U-component_of_CURRENTS"},"data":[0.2604,0.2604,0.264,0.2609,0.2638,0.2601,0.262,0.2664,0.2801,0.3035,0.3275,0.3529,0.4062,0.4472,0.4533,0.4414,0.4023,0.3886,0.3816,0.4132,0.4139,0.4145,0.4049,0.408,0.408,0.3161,0.3155,0.315,0.2656,0.2689,0.2731,0.2771,0.2784,0.2859,0.2946,0.2944,0.3039,0.3305,0.3482,0.3877,0.4115,0.4376,0.4645,0.4545,0.4244,0.4423,0.4027,0.3915,0.4378,0.4292,0.4376,0.4376,0.4376,0.4376,0.4376,0.4376,0.2757,0.2767,0.2822,0.2873,0.2931,0.2981,0.2987,0.3126,0.3253,0.3449,0.3708,0.392,0.4276,0.462,0.4657,0.4713,0.4582,0.4575,0.4533,0.4321,0.4112,0.4608,0.4783,0.4785,0.4786,0.4787,0.4788,0,0.2837,0.2871,0.2907,0.297,0.3019,0.3076,0.317,0.3236,0.3437,0.3579,0.3814,0.3982,0.4349,0.4492,0.4735,0.4772,0.4498,0.4718,0.4646,0.4259,0.4015,0.3879,0.4306,0.4465,0.4464,0.4464,0.4464,0.4463,0.2915,0.2935,0.3025,0.3051,0.3089,0.315,0.3204,0.335,0.3434,0.3715,0.3785,0.4061,0.4221,0.4518,0.4612,0.4748,0.4545,0.4701,0.452,0.4458,0.4411,0.4182,0.405,0.4459,0.4459,0.446,0.446,0,0.2953,0.3016,0.3062,0.3155,0.3182,0.3209,0.3332,0.3395,0.3526,0.3659,0.371,0.3927,0.4132,0.4237,0.4373,0.4381,0.4392,0.453,0.4421,0.4425,0.4416,0.4361,0.429,0.4153,0.469,0.4693,0.4696,0,0.3029,0.3057,0.3143,0.3164,0.3208,0.3289,0.3351,0.3428,0.355,0.3638,0.3732,0.3843,0.3917,0.4056,0.4083,0.4247,0.4239,0.4242,0.4264,0.4137,0.4133,0.4077,0.4015,0.4163,0.4162,0.416,0.4158,0,0.3049,0.3132,0.317,0.3198,0.3296,0.3325,0.3382,0.3473,0.3536,0.3644,0.3711,0.379,0.387,0.3915,0.4015,0.3944,0.4167,0.407,0.4185,0.4193,0.4116,0.4113,0.4168,0.4156,0.4155,0.4155,0.4154,0,0.3105,0.315,0.3194,0.3282,0.3301,0.3331,0.3424,0.3473,0.3563,0.36,0.366,0.3692,0.3778,0.3728,0.3863,0.3805,0.385,0.3878,0.3887,0.3945,0.3918,0.4007,0.4116,0.4037,0.3987,0.3985,0.3983,0,0.3122,0.3172,0.3215,0.3266,0.3301,0.3368,0.3405,0.3461,0.3509,0.3563,0.3589,0.3628,0.3605,0.3633,0.3663,0.3715,0.3772,0.3674,0.3808,0.3814,0.3881,0.3992,0.3875,0.4078,0.3955,0.3957,0.396,0,0.3123,0.3206,0.3208,0.3241,0.3315,0.3343,0.3391,0.345,0.3488,0.351,0.3555,0.3564,0.3584,0.3586,0.3591,0.3622,0.373,0.3612,0.3613,0.372,0.3873,0.3945,0.3972,0.3697,0.37,0.3701,0.3937,0,0.3175,0.3202,0.3218,0.3268,0.3301,0.3339,0.3385,0.3418,0.3437,0.3458,0.3493,0.3498,0.352,0.3515,0.3508,0.3564,0.3587,0.3543,0.3532,0.3573,0.3672,0.369,0.3464,0.3463,0.3462,0.3462,0,0,0.317,0.3197,0.323,0.3259,0.329,0.3336,0.3363,0.3387,0.3423,0.3441,0.3429,0.3452,0.3445,0.3478,0.349,0.3477,0.352,0.3474,0.3541,0.355,0.3558,0.3655,0.3673,0.346,0.346,0.346,0.3459,0,0.3185,0.3208,0.322,0.3253,0.3307,0.3335,0.3347,0.3388,0.3403,0.3421,0.3423,0.3439,0.3426,0.3441,0.344,0.3465,0.3482,0.3454,0.3492,0.3533,0.3543,0.3551,0.3648,0.3665,0.3457,0.3457,0.3458,0,0.3194,0.3223,0.3228,0.3273,0.3302,0.3331,0.3341,0.3377,0.3397,0.3387,0.3403,0.3403,0.3395,0.3407,0.3409,0.3399,0.3461,0.3407,0.3411,0.342,0.3461,0.3472,0.3481,0.3361,0.3361,0.336,0,0,0.3206,0.3221,0.3266,0.3279,0.3298,0.3331,0.3348,0.3369,0.3387,0.3393,0.3392,0.3389,0.339,0.3391,0.3388,0.3393,0.3422,0.3397,0.3402,0.3406,0.3417,0.3458,0.3469,0.336,0.336,0.336,0,0,0.3211,0.3253,0.3265,0.3279,0.3317,0.3353,0.3366,0.3378,0.3389,0.3389,0.3381,0.338,0.3389,0.3376,0.3372,0.3383,0.3362,0.3362,0.3399,0.3405,0.3409,0.3425,0.3355,0,0,0,0,0,0.3247,0.3249,0.326,0.3268,0.3308,0.3348,0.3353,0.3376,0.3374,0.3385,0.3387,0.3373,0.3377,0.3373,0.337,0.3382,0.3354,0.3355,0.3356,0.3404,0.341,0.3415,0,0,0,0,0,0,0.325,0.3258,0.326,0.3295,0.3305,0.3346,0.3347,0.3352,0.3374,0.3375,0.3374,0.3372,0.3367,0.3373,0.337,0.3382,0.3355,0.3354,0.3355,0.3356,0.3406,0.3411,0.3415,0,0,0,0,0,0.3253,0.326,0.3316,0.3295,0.3304,0.3338,0.3346,0.3351,0.3364,0.3366,0.3367,0.3382,0.3367,0.3365,0.3371,0.3384,0.3357,0.3356,0.3355,0.3355,0.3356,0.3409,0,0,0,0,0,0,0.3255,0.3257,0.3319,0.3323,0.3296,0.3337,0.3343,0.335,0.3353,0.3355,0.3373,0.3374,0.3367,0.3366,0.3364,0.3386,0.3358,0.3357,0.3357,0.3355,0.3356,0.3356,0,0,0,0,0,0,0.3254,0.326,0.332,0.332,0.3324,0.3335,0.3341,0.3332,0.3351,0.3357,0.336,0.3373,0.3361,0.3366,0.3365,0.3351,0.3359,0.3358,0.3358,0.3357,0.3356,0.3356,0,0,0,0,0,0,0.3257,0.3262,0.3319,0.3322,0.3325,0.3367,0.3326,0.3356,0.338,0.3355,0.3381,0.3381,0.336,0.3359,0.3365,0.3352,0.3351,0.3359,0.3358,0.3358,0.3358,0,0,0,0,0,0,0,0.326,0.322,0.3301,0.3323,0.3326,0.3361,0.3361,0.3361,0.338,0.338,0.3381,0.3381,0.3363,0.3363,0.3362,0.3352,0,0,0.3359,0.3359,0,0,0,0,0,0,0,0,0.3219,0.322,0.3301,0.3303,0.3304,0.3361,0.3361,0.3361,0.338,0.338,0.338,0.3381,0.3363,0.3363,0.3362,0,0,0,0,0,0,0,0,0,0,0,0,0,0,0,0.3302,0.3303,0,0.3361,0.3361,0.3361,0.338,0.338,0.338,0.3381,0.3363,0.3362,0.3362,0,0,0,0,0,0,0,0,0,0,0,0,0,0,0,0,0,0,0,0,0,0,0,0,0,0,0,0,0,0,0,0,0,0,0,0,0,0,0,0,0,0,0,0,0,0,0,0,0,0,0,0,0,0,0,0,0,0,0,0,0,0,0,0,0,0,0,0,0]}],[{"header":{"parameterUnit":"kt","parameterCategory":2,"dx":1,"dy":1,"la1":30.253999710083008,"la2":30.299108505249023,"lo1":-89.0895004272461,"lo2":-89.04439544677734,"nx":28,"ny":28,"refTime":"2022-09-17T21:00:00:Z","depth":"0","parameterNumber":3,"parameterNumberName":"V-component_of_CURRENTS"},"data":[0.0499,0.0617,0.066,0.0877,0.0971,0.1166,0.129,0.1491,0.1642,0.1858,0.1911,0.1884,0.1391,-0.0329,-0.1564,-0.1878,-0.2266,-0.2328,-0.2555,-0.2205,-0.2177,-0.215,-0.2165,-0.2432,-0.2433,-0.3056,-0.3063,-0.3068,0.042,0.0478,0.0576,0.0701,0.0826,0.084,0.1027,0.1166,0.1406,0.1542,0.1654,0.1456,0.082,0.0129,-0.0813,-0.1345,-0.1586,-0.166,-0.1836,-0.1916,-0.1343,-0.1322,-0.1413,-0.1413,-0.1413,-0.1413,-0.1413,-0.1412,0.0293,0.0352,0.0423,0.0524,0.0609,0.0744,0.0855,0.0979,0.1138,0.1295,0.1253,0.1294,0.079,0.0139,-0.0269,-0.0989,-0.1026,-0.1217,-0.1369,-0.1453,-0.1555,-0.0863,-0.0922,-0.0923,-0.0923,-0.0923,-0.0924,0,0.021,0.0221,0.0272,0.0377,0.0444,0.0533,0.0619,0.0703,0.0733,0.0817,0.0924,0.0915,0.057,0.0257,-0.0232,-0.0508,-0.1077,-0.0906,-0.1166,-0.1345,-0.1425,-0.1568,-0.0926,-0.0966,-0.0966,-0.0967,-0.0967,-0.0968,0.0107,0.0148,0.02,0.0251,0.0264,0.0328,0.0383,0.037,0.0442,0.0471,0.0532,0.0426,0.0415,0.0026,-0.0346,-0.0699,-0.095,-0.0912,-0.0973,-0.1179,-0.1366,-0.1464,-0.1556,-0.0975,-0.0974,-0.0973,-0.0973,0,0.0057,0.0056,0.0121,0.0143,0.0156,0.02,0.0249,0.0294,0.0257,0.0329,0.0322,0.0216,0.0077,-0.0177,-0.0449,-0.0644,-0.0991,-0.0927,-0.0846,-0.0879,-0.1186,-0.132,-0.1569,-0.169,-0.1053,-0.1053,-0.1052,0,-0.0029,0.0016,0.002,0.0049,0.0115,0.0083,0.0143,0.0109,0.01,0.0159,0.0007,0.0037,-0.0227,-0.0341,-0.0553,-0.0742,-0.0762,-0.0923,-0.0968,-0.0934,-0.0928,-0.1189,-0.1331,-0.1,-0.0999,-0.0999,-0.0998,0,-0.011,-0.0076,-0.0024,-0.0019,-0.0016,0.0001,-0.0002,-0.0034,-0.0016,-0.0081,-0.0076,-0.0198,-0.0233,-0.0419,-0.0596,-0.0628,-0.0791,-0.087,-0.095,-0.0949,-0.0983,-0.0982,-0.1194,-0.0997,-0.0997,-0.0996,-0.0996,0,-0.0196,-0.0174,-0.0114,-0.0099,-0.0094,-0.0079,-0.0078,-0.0081,-0.0134,-0.017,-0.0227,-0.0302,-0.0373,-0.0454,-0.0631,-0.06,-0.0722,-0.082,-0.0827,-0.0842,-0.0902,-0.0944,-0.0908,-0.1145,-0.0924,-0.0923,-0.0923,0,-0.0271,-0.0222,-0.0251,-0.0202,-0.0179,-0.0237,-0.0223,-0.0253,-0.0296,-0.0318,-0.0404,-0.0434,-0.0512,-0.0534,-0.0597,-0.0716,-0.0765,-0.0717,-0.0921,-0.0926,-0.0892,-0.0853,-0.0818,-0.0895,-0.0911,-0.0912,-0.0913,0,-0.0339,-0.0352,-0.0346,-0.0329,-0.0363,-0.0367,-0.036,-0.0381,-0.0375,-0.0443,-0.0444,-0.0511,-0.057,-0.0603,-0.0665,-0.0717,-0.0749,-0.0786,-0.0792,-0.0817,-0.0879,-0.0842,-0.0847,-0.0807,-0.0808,-0.0808,-0.0904,0,-0.0404,-0.0402,-0.0395,-0.0401,-0.0417,-0.0417,-0.0462,-0.048,-0.0519,-0.0558,-0.0592,-0.0672,-0.0724,-0.0739,-0.0783,-0.0795,-0.083,-0.0879,-0.0924,-0.0885,-0.0932,-0.0938,-0.0892,-0.0894,-0.0896,-0.0898,0,0,-0.0459,-0.0458,-0.0516,-0.0504,-0.0513,-0.0588,-0.0566,-0.0598,-0.0663,-0.0675,-0.0708,-0.0796,-0.0849,-0.0862,-0.0846,-0.0882,-0.0929,-0.0881,-0.0898,-0.0897,-0.0897,-0.0939,-0.0944,-0.0901,-0.0902,-0.0902,-0.0903,0,-0.0485,-0.0527,-0.0514,-0.0538,-0.0579,-0.0615,-0.0616,-0.0676,-0.0697,-0.0724,-0.078,-0.0819,-0.0882,-0.0915,-0.094,-0.0907,-0.0978,-0.0916,-0.0846,-0.0911,-0.0908,-0.0906,-0.0946,-0.0949,-0.0907,-0.0907,-0.0907,0,-0.0526,-0.0559,-0.0568,-0.0616,-0.0649,-0.0651,-0.0715,-0.074,-0.0737,-0.0832,-0.0844,-0.0899,-0.0962,-0.0976,-0.0989,-0.1011,-0.1029,-0.1017,-0.1008,-0.1006,-0.1078,-0.1073,-0.1069,-0.1121,-0.1122,-0.1122,0,0,-0.0541,-0.0554,-0.0614,-0.0627,-0.0641,-0.0702,-0.0725,-0.0756,-0.0805,-0.0824,-0.0877,-0.0927,-0.0963,-0.0984,-0.1029,-0.1047,-0.11,-0.1038,-0.1028,-0.1019,-0.1012,-0.108,-0.1076,-0.1123,-0.1123,-0.1123,0,0,-0.0553,-0.0612,-0.0633,-0.0651,-0.069,-0.076,-0.0768,-0.0802,-0.0845,-0.0848,-0.0919,-0.0935,-0.0957,-0.1004,-0.1008,-0.1029,-0.1077,-0.1078,-0.0983,-0.0972,-0.0962,-0.094,-0.106,0,0,0,0,0,-0.0604,-0.0603,-0.0622,-0.0633,-0.0708,-0.075,-0.0761,-0.081,-0.0828,-0.083,-0.0881,-0.0919,-0.1015,-0.102,-0.1035,-0.1008,-0.1134,-0.1132,-0.113,-0.1014,-0.1002,-0.0991,0,0,0,0,0,0,-0.0609,-0.0621,-0.0623,-0.0689,-0.0707,-0.075,-0.0788,-0.0802,-0.0829,-0.0834,-0.0908,-0.0922,-0.0969,-0.1016,-0.1029,-0.1001,-0.1055,-0.1133,-0.1131,-0.113,-0.101,-0.0999,-0.099,0,0,0,0,0,-0.0613,-0.0623,-0.0725,-0.0691,-0.0706,-0.0773,-0.0788,-0.0799,-0.082,-0.0897,-0.091,-0.0854,-0.0967,-0.0982,-0.1024,-0.0993,-0.1046,-0.1051,-0.1132,-0.113,-0.1129,-0.1005,0,0,0,0,0,0,-0.0616,-0.0638,-0.073,-0.0737,-0.0689,-0.0771,-0.0784,-0.0797,-0.0883,-0.0896,-0.0846,-0.0848,-0.0967,-0.0979,-0.099,-0.0986,-0.1039,-0.1044,-0.1047,-0.1131,-0.113,-0.1129,0,0,0,0,0,0,-0.0633,-0.0643,-0.0734,-0.0728,-0.0736,-0.077,-0.0781,-0.083,-0.0884,-0.0827,-0.0832,-0.0846,-0.0953,-0.0976,-0.0985,-0.106,-0.1034,-0.1038,-0.1041,-0.1043,-0.113,-0.1129,0,0,0,0,0,0,-0.0639,-0.0648,-0.0727,-0.0732,-0.0739,-0.0826,-0.0815,-0.089,-0.0873,-0.0823,-0.0874,-0.0874,-0.0949,-0.0959,-0.0981,-0.1052,-0.1058,-0.1034,-0.1037,-0.1039,-0.1041,0,0,0,0,0,0,0,-0.0644,-0.0566,-0.0686,-0.0735,-0.0741,-0.0806,-0.0808,-0.081,-0.0873,-0.0873,-0.0874,-0.0874,-0.1007,-0.1012,-0.1017,-0.1045,0,0,-0.1033,-0.1035,0,0,0,0,0,0,0,0,-0.0564,-0.0565,-0.0686,-0.0688,-0.0689,-0.0807,-0.0808,-0.081,-0.0873,-0.0873,-0.0874,-0.0874,-0.1008,-0.1012,-0.1017,0,0,0,0,0,0,0,0,0,0,0,0,0,0,0,-0.0687,-0.0688,0,-0.0807,-0.0808,-0.081,-0.0873,-0.0873,-0.0874,-0.0874,-0.101,-0.1013,-0.1016,0,0,0,0,0,0,0,0,0,0,0,0,0,0,0,0,0,0,0,0,0,0,0,0,0,0,0,0,0,0,0,0,0,0,0,0,0,0,0,0,0,0,0,0,0,0,0,0,0,0,0,0,0,0,0,0,0,0,0,0,0,0,0,0,0,0,0,0,0]}]],[[{"header":{"parameterUnit":"kt","parameterCategory":2,"dx":1,"dy":1,"la1":30.253999710083008,"la2":30.299108505249023,"lo1":-89.0895004272461,"lo2":-89.04439544677734,"nx":28,"ny":28,"refTime":"2022-09-17T21:00:00:Z","depth":"2","parameterNumber":2,"parameterNumberName":"U-component_of_CURRENTS"},"data":[0.274,0.2738,0.2756,0.2714,0.2775,0.2739,0.274,0.2702,0.2764,0.2731,0.2752,0.3016,0.3208,0.2844,0.2852,0.2714,0.2809,0.2617,0.3473,0.3331,0.3362,0.3474,0.3291,0,0,0,0,0,0.278,0.2816,0.2872,0.2911,0.293,0.3024,0.3092,0.3051,0.3047,0.3223,0.3293,0.3135,0.3166,0.328,0.3214,0.326,0.3164,0.3114,0.2954,0.2999,0.3037,0.288,0.2607,0.2602,0.2598,0.2595,0,0,0.286,0.2883,0.2945,0.3,0.3077,0.3124,0.3126,0.3243,0.3314,0.3429,0.3625,0.367,0.3801,0.382,0.3754,0.373,0.3972,0.3786,0.3794,0.3807,0.3698,0.3657,0.3637,0.3641,0.3644,0.3646,0.3649,0,0.2915,0.2954,0.3,0.3074,0.3138,0.3206,0.3317,0.3375,0.3555,0.3654,0.3802,0.3902,0.4123,0.4064,0.4181,0.4144,0.4096,0.4045,0.4427,0.3698,0.3656,0.3636,0.3641,0.3653,0.3656,0.3659,0.3661,0.3663,0.2985,0.2997,0.3097,0.3133,0.318,0.3265,0.3328,0.3469,0.3556,0.3795,0.3853,0.4067,0.4152,0.432,0.4331,0.438,0.4389,0.413,0.3963,0.4255,0.4238,0.4224,0.421,0.3704,0.3698,0.3694,0.3691,0,0.3018,0.3067,0.3113,0.321,0.3244,0.329,0.3434,0.3505,0.3636,0.3764,0.3817,0.4,0.4139,0.4223,0.432,0.4289,0.4331,0.4332,0.4056,0.4018,0.4217,0.4204,0.4351,0.4351,0.4351,0.4351,0.4351,0,0.308,0.311,0.3198,0.322,0.3271,0.3361,0.3438,0.352,0.3645,0.3729,0.3831,0.3917,0.4005,0.411,0.412,0.419,0.4231,0.4146,0.4143,0.3887,0.3862,0.4074,0.406,0.4178,0.4177,0.4175,0.4174,0,0.3105,0.3189,0.3216,0.325,0.3343,0.3389,0.3447,0.3549,0.3618,0.3736,0.381,0.3877,0.3957,0.399,0.4063,0.4015,0.4179,0.4105,0.41,0.4099,0.3878,0.3854,0.4173,0.4172,0.4172,0.4171,0.4171,0,0.3163,0.3196,0.324,0.3327,0.3348,0.3389,0.3485,0.3542,0.364,0.3689,0.3753,0.3793,0.3867,0.3832,0.3937,0.3893,0.3923,0.3943,0.3949,0.3912,0.3861,0.3738,0.3776,0.4003,0.4,0.3999,0.3997,0,0.3167,0.3218,0.326,0.3317,0.3346,0.3414,0.3459,0.3522,0.358,0.365,0.3675,0.3728,0.3709,0.3741,0.3764,0.3807,0.3848,0.3769,0.3867,0.3871,0.3829,0.3913,0.3632,0.3757,0.3973,0.3975,0.3977,0,0.3168,0.3246,0.3254,0.3284,0.335,0.3382,0.344,0.3493,0.3542,0.3588,0.3645,0.3667,0.3688,0.3693,0.3688,0.3716,0.3809,0.3712,0.3713,0.378,0.3923,0.3885,0.3898,0.3782,0.3784,0.3786,0.3958,0,0.3208,0.3235,0.3254,0.3298,0.3333,0.337,0.342,0.3465,0.3497,0.3526,0.3578,0.3586,0.3616,0.3617,0.3609,0.3663,0.3679,0.364,0.3615,0.3664,0.3734,0.3749,0.3557,0.3556,0.3556,0.3555,0,0,0.3192,0.3212,0.3245,0.3278,0.3307,0.3344,0.3372,0.3406,0.3456,0.348,0.3485,0.3532,0.3528,0.355,0.3574,0.3562,0.3598,0.3564,0.3634,0.3642,0.3651,0.3719,0.3735,0.3554,0.3554,0.3554,0.3553,0,0.3196,0.3216,0.3232,0.3268,0.3318,0.3337,0.3352,0.3402,0.3429,0.3464,0.3466,0.3488,0.3502,0.3509,0.3509,0.3549,0.3562,0.3555,0.3594,0.3627,0.3636,0.3645,0.3714,0.3728,0.3552,0.3552,0.3552,0,0.3193,0.3215,0.3227,0.3264,0.3292,0.3323,0.3335,0.3378,0.3406,0.3393,0.3434,0.3441,0.3437,0.3461,0.3471,0.3454,0.353,0.3483,0.3487,0.3505,0.3537,0.3548,0.3558,0.3433,0.3433,0.3433,0,0,0.3196,0.3214,0.3251,0.3266,0.3285,0.3321,0.3342,0.3366,0.3389,0.34,0.341,0.3419,0.3427,0.343,0.344,0.3451,0.3473,0.3469,0.3475,0.3479,0.3499,0.3533,0.3543,0.3431,0.3431,0.3431,0,0,0.32,0.3237,0.3245,0.3262,0.3297,0.3335,0.3356,0.3373,0.3392,0.3399,0.3393,0.3393,0.3418,0.3409,0.3392,0.3434,0.3412,0.3414,0.3438,0.3444,0.345,0.3473,0.3376,0,0,0,0,0,0.3224,0.3232,0.3238,0.3245,0.3288,0.3328,0.3335,0.3365,0.3372,0.3388,0.3395,0.3385,0.3406,0.339,0.3389,0.3412,0.3414,0.3417,0.342,0.3453,0.346,0.3466,0,0,0,0,0,0,0.3227,0.3234,0.3239,0.3273,0.3284,0.3326,0.3332,0.3339,0.3372,0.3375,0.3384,0.3384,0.3379,0.339,0.3389,0.3412,0.3377,0.3415,0.3418,0.342,0.3455,0.3461,0.3467,0,0,0,0,0,0.323,0.3236,0.3292,0.3274,0.3283,0.3326,0.3331,0.3338,0.3364,0.3367,0.3369,0.3388,0.3378,0.3378,0.3389,0.3413,0.3377,0.3377,0.3417,0.3419,0.3421,0.3458,0,0,0,0,0,0,0.3232,0.3239,0.3295,0.33,0.3276,0.3326,0.3332,0.3337,0.3353,0.3357,0.3367,0.3369,0.3378,0.3378,0.3377,0.3415,0.3378,0.3377,0.3377,0.3418,0.342,0.3421,0,0,0,0,0,0,0.3237,0.3242,0.3297,0.3297,0.3302,0.3324,0.3331,0.3326,0.3351,0.3351,0.3355,0.3368,0.3368,0.3378,0.3377,0.337,0.3378,0.3378,0.3378,0.3377,0.342,0.3421,0,0,0,0,0,0,0.324,0.3245,0.3296,0.33,0.3304,0.3357,0.3319,0.3352,0.338,0.3349,0.3381,0.3382,0.3367,0.3368,0.3377,0.337,0.337,0.3378,0.3378,0.3378,0.3378,0,0,0,0,0,0,0,0.3243,0.3198,0.3271,0.3302,0.3305,0.3345,0.3346,0.3346,0.338,0.3381,0.3381,0.3381,0.338,0.338,0.3379,0.337,0,0,0.3378,0.3378,0,0,0,0,0,0,0,0,0.3197,0.3198,0.3271,0.3273,0.3274,0.3345,0.3346,0.3346,0.338,0.3381,0.3381,0.3381,0.338,0.338,0.3379,0,0,0,0,0,0,0,0,0,0,0,0,0,0,0,0.3271,0.3272,0,0.3345,0.3346,0.3346,0.3381,0.3381,0.3381,0.3381,0.338,0.338,0.3379,0,0,0,0,0,0,0,0,0,0,0,0,0,0,0,0,0,0,0,0,0,0,0,0,0,0,0,0,0,0,0,0,0,0,0,0,0,0,0,0,0,0,0,0,0,0,0,0,0,0,0,0,0,0,0,0,0,0,0,0,0,0,0,0,0,0,0,0,0]}],[{"header":{"parameterUnit":"kt","parameterCategory":2,"dx":1,"dy":1,"la1":30.253999710083008,"la2":30.299108505249023,"lo1":-89.0895004272461,"lo2":-89.04439544677734,"nx":28,"ny":28,"refTime":"2022-09-17T21:00:00:Z","depth":"2","parameterNumber":3,"parameterNumberName":"V-component_of_CURRENTS"},"data":[0.0804,0.0904,0.0956,0.1136,0.1209,0.1363,0.1461,0.1547,0.161,0.1639,0.159,0.1473,0.0943,0.0505,-0.0012,-0.0366,-0.0457,-0.044,-0.04,-0.0294,-0.0289,-0.0656,-0.0598,0,0,0,0,0,0.0765,0.082,0.0901,0.1007,0.1105,0.113,0.1289,0.1367,0.1502,0.1555,0.1554,0.1204,0.0803,0.0363,-0.0263,-0.0643,-0.0683,-0.0756,-0.0718,-0.0717,-0.0716,-0.0683,-0.0725,-0.0726,-0.0727,-0.0728,0,0,0.0697,0.0743,0.08,0.0874,0.0945,0.1069,0.1153,0.1239,0.1349,0.142,0.1366,0.1268,0.0885,0.0268,-0.0136,-0.056,-0.0566,-0.0718,-0.0716,-0.0716,-0.0682,-0.0641,-0.0724,-0.0724,-0.0725,-0.0725,-0.0725,0,0.0653,0.0657,0.0694,0.0774,0.0824,0.0899,0.0964,0.1042,0.1073,0.1106,0.1151,0.1085,0.0723,0.0374,-0.0102,-0.0342,-0.0582,-0.0641,-0.0645,-0.0629,-0.0585,-0.061,-0.0605,-0.0664,-0.0665,-0.0665,-0.0665,-0.0665,0.0575,0.061,0.0644,0.068,0.0684,0.0723,0.0768,0.076,0.0819,0.0832,0.0883,0.0742,0.0666,0.0261,-0.0096,-0.045,-0.0503,-0.0633,-0.0683,-0.066,-0.0688,-0.0679,-0.0671,-0.0667,-0.0666,-0.0666,-0.0666,0,0.0538,0.0543,0.059,0.0601,0.0607,0.0632,0.0664,0.0697,0.0659,0.0712,0.07,0.0581,0.0412,0.0161,-0.0118,-0.0302,-0.0527,-0.0603,-0.0519,-0.0545,-0.0671,-0.0664,-0.0751,-0.0752,-0.0753,-0.0754,-0.0754,0,0.0476,0.0504,0.05,0.0523,0.0573,0.0535,0.0575,0.0532,0.0516,0.0565,0.0414,0.0421,0.0159,0.0034,-0.0176,-0.0389,-0.0387,-0.058,-0.0617,-0.0572,-0.0569,-0.0609,-0.0608,-0.0612,-0.0612,-0.0611,-0.061,0,0.0402,0.0424,0.047,0.047,0.0473,0.0467,0.0463,0.0415,0.0423,0.0341,0.0337,0.0207,0.0155,-0.0025,-0.0223,-0.0244,-0.0422,-0.0477,-0.059,-0.059,-0.061,-0.061,-0.061,-0.061,-0.0609,-0.0609,-0.0609,0,0.0333,0.0355,0.0399,0.0409,0.0412,0.0414,0.0397,0.0381,0.0315,0.0263,0.0191,0.0114,0.0021,-0.0066,-0.025,-0.0215,-0.0339,-0.0436,-0.0443,-0.0486,-0.0526,-0.0544,-0.0546,-0.0518,-0.0517,-0.0516,-0.0515,0,0.0285,0.0319,0.0295,0.0326,0.0345,0.0287,0.0284,0.024,0.0183,0.0142,0.0037,-0.0012,-0.0101,-0.0137,-0.0209,-0.0326,-0.0383,-0.0336,-0.0504,-0.0509,-0.0498,-0.0498,-0.0456,-0.053,-0.0503,-0.0504,-0.0505,0,0.0234,0.0223,0.0224,0.0233,0.0207,0.0202,0.0179,0.0155,0.0143,0.0044,0.0021,-0.009,-0.0146,-0.019,-0.0257,-0.0318,-0.0364,-0.0377,-0.0382,-0.0394,-0.0478,-0.048,-0.0489,-0.0405,-0.0406,-0.0407,-0.0495,0,0.0187,0.0188,0.0193,0.018,0.0167,0.017,0.0117,0.0082,0.0024,-0.0021,-0.0089,-0.0188,-0.0259,-0.0293,-0.0341,-0.0377,-0.04,-0.0435,-0.0459,-0.0447,-0.0488,-0.0496,-0.0433,-0.0435,-0.0437,-0.0438,0,0,0.0149,0.0154,0.0107,0.011,0.0103,0.0045,0.0057,0.0016,-0.0063,-0.0088,-0.0138,-0.0265,-0.0333,-0.0368,-0.0379,-0.0413,-0.045,-0.0414,-0.0453,-0.0454,-0.0455,-0.0493,-0.0498,-0.044,-0.0441,-0.0441,-0.0442,0,0.0131,0.0105,0.0107,0.0087,0.005,0.0025,0.0022,-0.004,-0.0078,-0.0129,-0.0197,-0.0258,-0.0345,-0.0393,-0.0427,-0.0427,-0.0484,-0.0449,-0.0404,-0.0463,-0.0462,-0.0461,-0.0497,-0.0501,-0.0445,-0.0445,-0.0445,0,0.0099,0.0074,0.0062,0.0032,0.0003,-0.0001,-0.0059,-0.0085,-0.01,-0.0189,-0.0238,-0.0302,-0.0376,-0.0419,-0.0446,-0.0459,-0.0514,-0.0497,-0.0492,-0.0492,-0.0554,-0.0553,-0.0552,-0.0564,-0.0564,-0.0563,0,0,0.0087,0.0073,0.0028,0.0023,0.0013,-0.0044,-0.0063,-0.0101,-0.0155,-0.018,-0.0247,-0.0319,-0.037,-0.0403,-0.046,-0.0492,-0.0535,-0.0506,-0.0501,-0.0496,-0.0493,-0.0554,-0.0553,-0.0563,-0.0563,-0.0563,0,0,0.0074,0.0021,-0.0001,-0.0007,-0.0037,-0.0095,-0.0103,-0.014,-0.0193,-0.0212,-0.0288,-0.0308,-0.0358,-0.0405,-0.0391,-0.0466,-0.0496,-0.05,-0.0419,-0.0413,-0.0408,-0.0388,-0.0445,0,0,0,0,0,0.0023,0.0031,0.0012,0.0004,-0.0054,-0.008,-0.0089,-0.0146,-0.0179,-0.0179,-0.0248,-0.0288,-0.0419,-0.0408,-0.0423,-0.0423,-0.0557,-0.0558,-0.0559,-0.0464,-0.0457,-0.0452,0,0,0,0,0,0,0.0019,0.0011,0.0011,-0.0043,-0.0057,-0.0081,-0.0134,-0.0149,-0.018,-0.0188,-0.0274,-0.029,-0.0342,-0.0404,-0.0417,-0.0415,-0.0441,-0.0558,-0.0559,-0.0559,-0.0462,-0.0456,-0.0451,0,0,0,0,0,0.0016,0.0009,-0.0067,-0.0044,-0.0057,-0.0127,-0.0135,-0.0148,-0.0176,-0.0255,-0.0272,-0.0217,-0.0339,-0.0356,-0.0412,-0.0408,-0.0432,-0.0437,-0.0558,-0.0559,-0.056,-0.0459,0,0,0,0,0,0,0.0014,-0.0005,-0.0071,-0.0077,-0.0055,-0.0127,-0.0139,-0.0147,-0.0243,-0.0258,-0.0202,-0.0207,-0.0338,-0.0351,-0.0363,-0.0402,-0.0425,-0.043,-0.0433,-0.0559,-0.0559,-0.056,0,0,0,0,0,0,-0.0002,-0.001,-0.0074,-0.0084,-0.0092,-0.0127,-0.0138,-0.0181,-0.0244,-0.0185,-0.0192,-0.0203,-0.033,-0.0347,-0.0357,-0.0421,-0.042,-0.0424,-0.0427,-0.0429,-0.0559,-0.056,0,0,0,0,0,0,-0.0007,-0.0014,-0.0083,-0.0089,-0.0096,-0.0173,-0.0169,-0.0232,-0.023,-0.018,-0.0234,-0.0236,-0.0326,-0.0337,-0.0352,-0.0412,-0.0419,-0.042,-0.0423,-0.0425,-0.0427,0,0,0,0,0,0,0,-0.0011,0.0052,-0.0032,-0.0093,-0.0099,-0.0138,-0.0139,-0.0141,-0.023,-0.0232,-0.0234,-0.0235,-0.0394,-0.0399,-0.0404,-0.0404,0,0,-0.0419,-0.0422,0,0,0,0,0,0,0,0,0.0053,0.0052,-0.0033,-0.0034,-0.0035,-0.0138,-0.0139,-0.0141,-0.0231,-0.0232,-0.0233,-0.0234,-0.0395,-0.0399,-0.0403,0,0,0,0,0,0,0,0,0,0,0,0,0,0,0,-0.0033,-0.0034,0,-0.0138,-0.0139,-0.014,-0.0231,-0.0232,-0.0233,-0.0234,-0.0397,-0.04,-0.0403,0,0,0,0,0,0,0,0,0,0,0,0,0,0,0,0,0,0,0,0,0,0,0,0,0,0,0,0,0,0,0,0,0,0,0,0,0,0,0,0,0,0,0,0,0,0,0,0,0,0,0,0,0,0,0,0,0,0,0,0,0,0,0,0,0,0,0,0,0]}]],[[{"header":{"parameterUnit":"kt","parameterCategory":2,"dx":1,"dy":1,"la1":30.253999710083008,"la2":30.299108505249023,"lo1":-89.0895004272461,"lo2":-89.04439544677734,"nx":28,"ny":28,"refTime":"2022-09-17T21:00:00:Z","depth":"4","parameterNumber":2,"parameterNumberName":"U-component_of_CURRENTS"},"data":[0.1279,0.1338,0.1372,0.1403,0.1448,0.1556,0.165,0.1791,0.1805,0.2018,0.2084,0.2251,0.2381,0.2498,0.2525,0.2557,0.2475,0.2845,0.2839,0.2794,0.2805,0.2815,0.2721,0,0,0,0,0,0.1329,0.1347,0.1418,0.1509,0.1613,0.1691,0.1842,0.1933,0.2137,0.216,0.2278,0.2392,0.2498,0.2602,0.2568,0.2767,0.28,0.2715,0.2663,0.2801,0.2813,0.2718,0,0,0,0,0,0,0.1393,0.1418,0.1523,0.1616,0.1729,0.1794,0.1881,0.199,0.2098,0.2373,0.2406,0.2618,0.2786,0.2804,0.2853,0.2859,0.2793,0.2667,0.2686,0.2699,0.2602,0.2513,0.2461,0,0,0,0,0,0.1449,0.1525,0.1597,0.1715,0.1818,0.1914,0.2049,0.2098,0.231,0.2489,0.2603,0.268,0.2815,0.2875,0.2935,0.2932,0.3009,0.2979,0.2983,0.2867,0.2821,0.2806,0.2804,0.2861,0.2862,0.2863,0.2864,0,0.1517,0.1563,0.1735,0.1792,0.1878,0.2004,0.2087,0.2273,0.2354,0.2613,0.2659,0.2852,0.2951,0.2967,0.3061,0.3079,0.3041,0.3013,0.289,0.284,0.2824,0.2818,0.2812,0.2874,0.2873,0.2872,0.2871,0,0.155,0.165,0.1744,0.1907,0.1965,0.2036,0.2217,0.2294,0.2465,0.26,0.2662,0.2845,0.2961,0.3041,0.3125,0.3044,0.3053,0.3025,0.3114,0.3105,0.2836,0.2825,0.289,0.2887,0.2884,0.2881,0.2879,0,0.1624,0.1691,0.1841,0.1883,0.1985,0.2092,0.2212,0.2316,0.2468,0.2564,0.2692,0.2783,0.2889,0.2975,0.2983,0.2987,0.3083,0.2902,0.2891,0.2957,0.2947,0.2934,0.292,0.3049,0.3048,0.3048,0.3047,0,0.1639,0.1771,0.1849,0.189,0.2029,0.2106,0.2184,0.2318,0.2399,0.2559,0.2646,0.2753,0.2839,0.2883,0.2938,0.2906,0.3038,0.2986,0.2881,0.2872,0.2925,0.2912,0.3047,0.3046,0.3046,0.3046,0.3046,0,0.1693,0.1765,0.1853,0.1978,0.2007,0.2072,0.221,0.2281,0.2415,0.2493,0.2598,0.2651,0.2752,0.2727,0.2838,0.2813,0.2832,0.2845,0.2848,0.2706,0.2655,0.2742,0.2857,0.2855,0.2854,0.2852,0.2851,0,0.1683,0.1777,0.1841,0.193,0.1977,0.2061,0.2133,0.2221,0.2306,0.2404,0.2472,0.2566,0.2565,0.2626,0.267,0.2716,0.2756,0.2699,0.2758,0.2759,0.2636,0.2714,0.2747,0.2829,0.2832,0.2834,0.2835,0,0.1664,0.1787,0.1803,0.1856,0.1953,0.1985,0.2075,0.2159,0.2231,0.2316,0.2407,0.2492,0.2532,0.2559,0.2586,0.2625,0.2719,0.2622,0.2623,0.2649,0.283,0.2703,0.2703,0.2735,0.2737,0.2739,0.282,0,0.1695,0.176,0.1788,0.1871,0.1913,0.1963,0.2021,0.2088,0.2153,0.2197,0.2312,0.2358,0.2436,0.2457,0.2465,0.2558,0.2552,0.2535,0.2498,0.2569,0.2592,0.2605,0.2435,0.2434,0.2432,0.2431,0,0,0.1663,0.1724,0.177,0.182,0.1861,0.1907,0.195,0.1994,0.2075,0.2124,0.2141,0.227,0.2297,0.2381,0.2417,0.2422,0.2447,0.2424,0.2528,0.2539,0.2549,0.2575,0.2589,0.2429,0.2429,0.2428,0.2428,0,0.166,0.1715,0.1756,0.1793,0.1865,0.1888,0.1912,0.1969,0.2017,0.2094,0.2128,0.2197,0.2265,0.23,0.2323,0.24,0.2401,0.242,0.2468,0.2515,0.2528,0.2539,0.2568,0.2581,0.2424,0.2425,0.2425,0,0.1644,0.1694,0.1716,0.178,0.1815,0.1851,0.1865,0.1922,0.1967,0.1986,0.2079,0.2119,0.215,0.2222,0.2259,0.2237,0.2352,0.2311,0.2318,0.2315,0.2361,0.2376,0.2389,0.2222,0.2221,0.2221,0,0,0.1647,0.1695,0.1735,0.1778,0.18,0.1841,0.187,0.1906,0.1953,0.1984,0.203,0.2081,0.2127,0.2162,0.2198,0.2252,0.2254,0.2288,0.2298,0.2306,0.2308,0.2355,0.2369,0.2219,0.2219,0.2219,0,0,0.1637,0.1696,0.1722,0.177,0.1806,0.1836,0.1873,0.19,0.1961,0.1991,0.2016,0.2031,0.2115,0.2115,0.2089,0.2195,0.2152,0.2158,0.2204,0.2216,0.2225,0.2221,0.2077,0,0,0,0,0,0.1652,0.1684,0.1706,0.172,0.1787,0.1819,0.1828,0.1881,0.1909,0.1935,0.1992,0.1992,0.2112,0.2089,0.2097,0.2146,0.2195,0.2199,0.2203,0.2275,0.2287,0.2298,0,0,0,0,0,0,0.1658,0.1672,0.1705,0.1734,0.175,0.1818,0.1838,0.1851,0.1909,0.1918,0.198,0.1991,0.2005,0.2085,0.2092,0.214,0.2074,0.2196,0.22,0.2203,0.2279,0.2289,0.2298,0,0,0,0,0,0.1662,0.1674,0.1775,0.1734,0.1748,0.1817,0.1839,0.1851,0.1904,0.1937,0.1951,0.195,0.2002,0.2014,0.2089,0.2137,0.2069,0.2072,0.2199,0.2202,0.2204,0.2284,0,0,0,0,0,0,0.1665,0.1675,0.1779,0.1784,0.175,0.1816,0.183,0.185,0.1922,0.1935,0.1903,0.1909,0.2,0.2009,0.2017,0.2137,0.2066,0.2068,0.207,0.2201,0.2203,0.2205,0,0,0,0,0,0,0.1669,0.1679,0.1781,0.1799,0.1807,0.1815,0.1827,0.1848,0.1922,0.1883,0.189,0.1905,0.1999,0.2006,0.2013,0.2042,0.2063,0.2065,0.2067,0.2068,0.2203,0.2205,0,0,0,0,0,0,0.1674,0.1683,0.1797,0.1803,0.181,0.1876,0.1835,0.1907,0.1924,0.1879,0.193,0.1932,0.1995,0.2002,0.2009,0.2035,0.2041,0.2063,0.2064,0.2066,0.2066,0,0,0,0,0,0,0,0.1678,0.1612,0.1749,0.1807,0.1814,0.1839,0.184,0.1841,0.1925,0.1927,0.1929,0.1931,0.2048,0.2051,0.2054,0.203,0,0,0.2062,0.2064,0,0,0,0,0,0,0,0,0.1609,0.1611,0.1749,0.1751,0.1752,0.1839,0.184,0.1841,0.1925,0.1927,0.1929,0.193,0.2049,0.2051,0.2053,0,0,0,0,0,0,0,0,0,0,0,0,0,0,0,0.1749,0.175,0,0.1839,0.184,0.1841,0.1926,0.1927,0.1928,0.193,0.2049,0.2051,0.2053,0,0,0,0,0,0,0,0,0,0,0,0,0,0,0,0,0,0,0,0,0,0,0,0,0,0,0,0,0,0,0,0,0,0,0,0,0,0,0,0,0,0,0,0,0,0,0,0,0,0,0,0,0,0,0,0,0,0,0,0,0,0,0,0,0,0,0,0,0]}],[{"header":{"parameterUnit":"kt","parameterCategory":2,"dx":1,"dy":1,"la1":30.253999710083008,"la2":30.299108505249023,"lo1":-89.0895004272461,"lo2":-89.04439544677734,"nx":28,"ny":28,"refTime":"2022-09-17T21:00:00:Z","depth":"4","parameterNumber":3,"parameterNumberName":"V-component_of_CURRENTS"},"data":[0.0615,0.0682,0.0722,0.0802,0.0852,0.0941,0.099,0.1004,0.098,0.0965,0.0793,0.072,0.0395,0.0562,0.0069,0.0002,-0.0084,-0.0426,-0.0431,-0.0545,-0.0541,-0.0537,-0.0481,0,0,0,0,0,0.0629,0.0664,0.0733,0.0798,0.0882,0.0928,0.1004,0.1029,0.1041,0.0996,0.0963,0.0773,0.044,0.0293,0.0075,-0.001,-0.0291,-0.0275,-0.0366,-0.0542,-0.0537,-0.0485,0,0,0,0,0,0,0.0634,0.0664,0.0718,0.0782,0.0861,0.0923,0.0958,0.098,0.0998,0.0957,0.0925,0.0707,0.058,0.0252,0.0031,-0.0185,-0.024,-0.0299,-0.0308,-0.0306,-0.0229,-0.015,-0.0197,0,0,0,0,0,0.0625,0.0651,0.0684,0.0761,0.0816,0.088,0.0935,0.0959,0.0958,0.0953,0.087,0.0692,0.0486,0.0214,-0.0024,-0.0241,-0.0388,-0.0462,-0.0461,-0.0459,-0.0421,-0.0439,-0.0428,-0.0519,-0.0519,-0.0519,-0.0518,0,0.0615,0.0634,0.0692,0.0725,0.0743,0.0794,0.0831,0.0839,0.086,0.0819,0.0819,0.0663,0.0548,0.0213,-0.0018,-0.0317,-0.0364,-0.0449,-0.0446,-0.0412,-0.0434,-0.0424,-0.0414,-0.0514,-0.0515,-0.0515,-0.0515,0,0.0612,0.0618,0.0651,0.0678,0.0696,0.0724,0.0771,0.0788,0.0763,0.0764,0.0752,0.062,0.044,0.0233,-0.001,-0.0137,-0.0324,-0.0392,-0.0286,-0.031,-0.0412,-0.0404,-0.0508,-0.051,-0.0511,-0.0512,-0.0513,0,0.0592,0.0614,0.063,0.0643,0.0682,0.0664,0.0697,0.0672,0.0651,0.0654,0.0553,0.0519,0.0314,0.018,0.0021,-0.0175,-0.0176,-0.0313,-0.0346,-0.027,-0.0263,-0.0289,-0.0283,-0.0331,-0.033,-0.033,-0.0329,0,0.0576,0.0585,0.0607,0.0608,0.0604,0.0614,0.0613,0.0571,0.057,0.0508,0.0506,0.0374,0.0318,0.0174,-0.0002,-0.0001,-0.0191,-0.0209,-0.0313,-0.0314,-0.0283,-0.0278,-0.0328,-0.0328,-0.0328,-0.0328,-0.0327,0,0.0546,0.0551,0.0567,0.0579,0.058,0.058,0.0568,0.0547,0.0485,0.046,0.0392,0.0329,0.0222,0.0179,-0.0003,0.0034,-0.0065,-0.0146,-0.0152,-0.0176,-0.0201,-0.0183,-0.0222,-0.022,-0.0219,-0.0218,-0.0217,0,0.054,0.0543,0.0525,0.0537,0.0539,0.0508,0.0492,0.0456,0.042,0.039,0.0296,0.0249,0.0181,0.0152,0.0077,-0.0027,-0.0088,-0.0037,-0.0167,-0.0171,-0.0172,-0.0213,-0.0104,-0.0201,-0.0203,-0.0204,-0.0205,0,0.0526,0.0508,0.0511,0.0514,0.048,0.0479,0.0449,0.0417,0.0407,0.0344,0.0322,0.0205,0.0174,0.0127,0.0059,-0.0002,-0.0066,-0.0033,-0.0037,-0.0059,-0.0178,-0.0191,-0.0202,-0.0097,-0.0098,-0.01,-0.0194,0,0.0494,0.0497,0.0499,0.0471,0.0463,0.0461,0.042,0.0403,0.0376,0.0343,0.0279,0.02,0.0136,0.0093,0.005,-0.0017,-0.0027,-0.0047,-0.005,-0.0067,-0.0106,-0.0115,-0.0017,-0.0018,-0.0018,-0.0018,0,0,0.0486,0.048,0.0457,0.0447,0.0442,0.0406,0.0405,0.0376,0.0331,0.0315,0.03,0.0186,0.0128,0.0049,0.003,0.0004,-0.0025,0.0007,-0.0057,-0.0061,-0.0064,-0.0103,-0.0111,-0.0019,-0.0019,-0.0019,-0.0019,0,0.0464,0.0459,0.0457,0.0442,0.0416,0.0394,0.0394,0.0361,0.0341,0.0306,0.0252,0.0197,0.013,0.007,0.0031,0.0004,-0.0032,-0.0017,-0.0002,-0.0058,-0.0061,-0.0065,-0.0103,-0.011,-0.002,-0.002,-0.002,0,0.044,0.0421,0.0421,0.0399,0.0384,0.0371,0.0348,0.0339,0.0321,0.027,0.0239,0.0189,0.0121,0.007,0.0045,0.0042,-0.0034,-0.001,-0.0009,0.0003,-0.0055,-0.0059,-0.0063,-0.0016,-0.0016,-0.0015,0,0,0.042,0.0417,0.0387,0.0392,0.0385,0.0354,0.0346,0.0326,0.0293,0.0279,0.0238,0.0187,0.0131,0.0103,0.0058,0.0019,-0.0007,-0.0007,-0.0007,-0.0007,0.0004,-0.0053,-0.0057,-0.0014,-0.0014,-0.0014,0,0,0.041,0.0379,0.0366,0.0371,0.0351,0.0318,0.032,0.0301,0.0269,0.0263,0.021,0.0196,0.0147,0.0118,0.0135,0.0048,0.0046,0.0042,0.0071,0.007,0.007,0.0095,0.0101,0,0,0,0,0,0.037,0.0383,0.0372,0.0369,0.0342,0.0325,0.0321,0.0294,0.0284,0.0284,0.0239,0.0215,0.011,0.0124,0.0113,0.0089,-0.0003,-0.0005,-0.0007,0.002,0.002,0.0019,0,0,0,0,0,0,0.0369,0.0365,0.0371,0.0341,0.0334,0.0325,0.03,0.0292,0.0283,0.0279,0.0224,0.0213,0.0175,0.0128,0.0118,0.0096,0.0105,-0.0004,-0.0006,-0.0007,0.002,0.002,0.0019,0,0,0,0,0,0.0367,0.0364,0.0331,0.034,0.0334,0.0301,0.0299,0.0293,0.0285,0.0229,0.0218,0.0266,0.0177,0.0165,0.0122,0.0101,0.0111,0.0108,-0.0005,-0.0006,-0.0008,0.002,0,0,0,0,0,0,0.0366,0.0357,0.0329,0.0326,0.0335,0.0301,0.0296,0.0294,0.0235,0.0225,0.0267,0.0265,0.0178,0.0168,0.0159,0.0104,0.0117,0.0113,0.0111,-0.0006,-0.0007,-0.0008,0,0,0,0,0,0,0.0359,0.0355,0.0328,0.0323,0.0319,0.0301,0.0296,0.0261,0.0233,0.0276,0.0273,0.0267,0.0178,0.0171,0.0164,0.0111,0.0121,0.0117,0.0115,0.0113,-0.0007,-0.0008,0,0,0,0,0,0,0.0356,0.0353,0.0324,0.0321,0.0318,0.0281,0.0267,0.0235,0.0254,0.0278,0.0252,0.0252,0.018,0.0173,0.0167,0.0118,0.0113,0.012,0.0118,0.0116,0.0115,0,0,0,0,0,0,0,0.0355,0.0384,0.0348,0.0319,0.0316,0.0297,0.0296,0.0296,0.0254,0.0253,0.0253,0.0252,0.014,0.0137,0.0133,0.0123,0,0,0.0121,0.0119,0,0,0,0,0,0,0,0,0.0384,0.0384,0.0347,0.0347,0.0346,0.0297,0.0296,0.0296,0.0254,0.0253,0.0253,0.0252,0.0139,0.0136,0.0133,0,0,0,0,0,0,0,0,0,0,0,0,0,0,0,0.0347,0.0347,0,0.0297,0.0296,0.0296,0.0254,0.0253,0.0253,0.0252,0.0138,0.0136,0.0133,0,0,0,0,0,0,0,0,0,0,0,0,0,0,0,0,0,0,0,0,0,0,0,0,0,0,0,0,0,0,0,0,0,0,0,0,0,0,0,0,0,0,0,0,0,0,0,0,0,0,0,0,0,0,0,0,0,0,0,0,0,0,0,0,0,0,0,0,0]}]]]